TimeCDT,TemperatureF,Dew PointF,Humidity,Sea Level PressureIn,VisibilityMPH,Wind Direction,Wind SpeedMPH,Gust SpeedMPH,PrecipitationIn,Events,Conditions,WindDirDegrees,DateUTC
12:53 AM,73.0,66.0,79,30.05,10.0,Calm,Calm,-,N/A,,Clear,0,2013-05-24 05:53:00
1:53 AM,72.0,66.9,84,30.04,10.0,Calm,Calm,-,N/A,,Clear,0,2013-05-24 06:53:00
2:53 AM,71.1,66.0,84,30.05,10.0,Calm,Calm,-,N/A,,Clear,0,2013-05-24 07:53:00
3:53 AM,72.0,64.9,78,30.05,10.0,Calm,Calm,-,N/A,,Clear,0,2013-05-24 08:53:00
4:53 AM,72.0,64.0,76,30.06,10.0,ENE,3.5,-,N/A,,Clear,60,2013-05-24 09:53:00
5:53 AM,71.1,63.0,75,30.10,10.0,NE,8.1,-,N/A,,Clear,50,2013-05-24 10:53:00
6:53 AM,70.0,60.1,71,30.12,10.0,ENE,9.2,-,N/A,,Clear,60,2013-05-24 11:53:00
7:53 AM,71.1,60.1,68,30.16,10.0,ENE,13.8,19.6,N/A,,Mostly Cloudy,60,2013-05-24 12:53:00
8:53 AM,72.0,59.0,64,30.18,10.0,East,12.7,16.1,N/A,,Partly Cloudy,90,2013-05-24 13:53:00
9:53 AM,73.0,59.0,61,30.20,10.0,ENE,8.1,-,N/A,,Overcast,60,2013-05-24 14:53:00
10:53 AM,73.9,59.0,59,30.21,10.0,Variable,3.5,-,N/A,,Overcast,0,2013-05-24 15:53:00
11:53 AM,79.0,61.0,54,30.20,10.0,Variable,5.8,-,N/A,,Scattered Clouds,0,2013-05-24 16:53:00
12:53 PM,81.0,61.0,50,30.19,10.0,North,4.6,-,N/A,,Clear,360,2013-05-24 17:53:00
1:53 PM,82.0,62.1,51,30.19,10.0,ENE,8.1,-,N/A,,Partly Cloudy,70,2013-05-24 18:53:00
2:53 PM,82.9,62.1,49,30.17,10.0,Variable,5.8,-,N/A,,Clear,0,2013-05-24 19:53:00
3:53 PM,82.9,62.1,49,30.17,10.0,ENE,6.9,-,N/A,,Clear,60,2013-05-24 20:53:00
4:53 PM,84.0,61.0,46,30.14,10.0,North,6.9,-,N/A,,Clear,360,2013-05-24 21:53:00
5:53 PM,82.9,60.1,46,30.13,10.0,ENE,6.9,-,N/A,,Clear,60,2013-05-24 22:53:00
6:53 PM,81.0,57.0,44,30.13,10.0,Variable,4.6,-,N/A,,Clear,0,2013-05-24 23:53:00
7:53 PM,77.0,57.0,50,30.15,10.0,Calm,Calm,-,N/A,,Clear,0,2013-05-25 00:53:00
8:53 PM,75.0,57.0,53,30.17,10.0,NNE,3.5,-,N/A,,Clear,20,2013-05-25 01:53:00
9:53 PM,73.0,55.0,53,30.17,10.0,ENE,5.8,-,N/A,,Clear,60,2013-05-25 02:53:00
10:53 PM,70.0,53.1,55,30.18,10.0,ENE,5.8,-,N/A,,Clear,60,2013-05-25 03:53:00
11:53 PM,68.0,52.0,56,30.18,10.0,East,4.6,-,N/A,,Clear,90,2013-05-25 04:53:00